TimePDT,TemperatureF,Dew PointF,Humidity,Sea Level PressureIn,VisibilityMPH,Wind Direction,Wind SpeedMPH,Gust SpeedMPH,PrecipitationIn,Events,Conditions,WindDirDegrees,DateUTC
12:56 AM,50.0,39.9,68,30.16,10.0,North,5.8,-,N/A,,Clear,10,2013-03-17 07:56:00
1:56 AM,46.9,39.9,77,30.17,10.0,Calm,Calm,-,N/A,,Clear,0,2013-03-17 08:56:00
2:56 AM,46.0,39.9,79,30.16,10.0,Calm,Calm,-,N/A,,Clear,0,2013-03-17 09:56:00
3:56 AM,44.1,39.0,82,30.16,10.0,Calm,Calm,-,N/A,,Clear,0,2013-03-17 10:56:00
4:56 AM,42.1,37.9,85,30.16,10.0,Calm,Calm,-,N/A,,Clear,0,2013-03-17 11:56:00
5:56 AM,41.0,37.0,86,30.16,10.0,Calm,Calm,-,N/A,,Clear,0,2013-03-17 12:56:00
6:56 AM,41.0,37.0,86,30.17,10.0,Calm,Calm,-,N/A,,Clear,0,2013-03-17 13:56:00
7:56 AM,39.0,36.0,89,30.18,10.0,Calm,Calm,-,N/A,,Clear,0,2013-03-17 14:56:00
8:56 AM,45.0,39.0,80,30.18,10.0,Calm,Calm,-,N/A,,Clear,0,2013-03-17 15:56:00
9:56 AM,51.1,37.9,61,30.18,10.0,Calm,Calm,-,N/A,,Clear,0,2013-03-17 16:56:00
10:56 AM,54.0,37.9,55,30.16,10.0,Calm,Calm,-,N/A,,Clear,0,2013-03-17 17:56:00
11:56 AM,57.9,39.9,51,30.14,10.0,Calm,Calm,-,N/A,,Clear,0,2013-03-17 18:56:00
12:56 PM,64.0,36.0,35,30.11,10.0,NNE,5.8,-,N/A,,Clear,20,2013-03-17 19:56:00
1:56 PM,66.9,34.0,30,30.09,10.0,NW,10.4,-,N/A,,Clear,310,2013-03-17 20:56:00
2:56 PM,66.9,36.0,32,30.06,10.0,WNW,9.2,-,N/A,,Clear,300,2013-03-17 21:56:00
3:56 PM,66.9,39.0,36,30.06,10.0,West,6.9,-,N/A,,Clear,280,2013-03-17 22:56:00
4:56 PM,66.0,37.0,34,30.06,10.0,NW,9.2,-,N/A,,Clear,320,2013-03-17 23:56:00
5:56 PM,62.1,37.0,39,30.07,10.0,North,6.9,-,N/A,,Clear,10,2013-03-18 00:56:00
6:56 PM,57.0,34.0,42,30.08,10.0,North,9.2,-,N/A,,Clear,10,2013-03-18 01:56:00
7:56 PM,55.0,33.1,43,30.09,10.0,NNE,6.9,-,N/A,,Clear,30,2013-03-18 02:56:00
8:56 PM,52.0,35.1,53,30.09,10.0,Calm,Calm,-,N/A,,Clear,0,2013-03-18 03:56:00
9:56 PM,50.0,36.0,59,30.10,10.0,Calm,Calm,-,N/A,,Clear,0,2013-03-18 04:56:00
10:56 PM,48.0,37.0,66,30.10,10.0,Calm,Calm,-,N/A,,Clear,0,2013-03-18 05:56:00
11:56 PM,46.9,37.0,68,30.11,10.0,Calm,Calm,-,N/A,,Clear,0,2013-03-18 06:56:00